www.pogodaiklimat.ru

Погода и климат >> Архив погоды >> Бразилия >> Парана >> Планарту


ПОГОДА в Планарту

  • Прогноз погоды в Планарту
  • Монитор погоды в Планарту

АРХИВ ПОГОДЫ в Планарту

Время (UTC), дата Ветер
(напр.,м/с)
 
Видим.   Явления Облачность Т
(С)
Тd
(С)
f
(%)
Тe
(С)
Тes
(С)
Комфортность P
(гПа)
Po
(гПа)
Тmin
(С)
Tmax
(С)
R
(мм)
R24
(мм)
S
(см)
19 12.07 штиль 0
{4}
н/о н/о +26.8 -22.1 3 +23 +23 комфорт 1012.8 967.8
20 12.07 штиль 0
{3}
н/о н/о +25.9 -22.7 3 +22 +22 комфорт 1013.1 967.9
21 12.07 штиль 0 н/о н/о +23.9 -24.0 3 +21 +21 комфорт 1013.7 968.2
22 12.07 штиль 0 н/о н/о +22.0 -25.3 3 +19 +19 1014.3 968.5
23 12.07 штиль 0 н/о н/о +20.3 -26.4 3 +19 +19 1015.1 969.0
00 13.07 штиль 0 н/о н/о +20.0 -26.6 3 +19 +19 1015.5 969.3
01 13.07 штиль 0 н/о н/о +18.9 -27.4 3 +18 +18 1016.0 969.6
02 13.07 штиль 0 н/о н/о +18.1 -27.9 3 +18 +18 1016.3 969.8
03 13.07 штиль 0 н/о н/о +17.9 -28.0 3 +18 +18 1016.2 969.7
04 13.07 штиль 0 н/о н/о +17.1 -28.6 3 +17 +17 1016.2 969.5
05 13.07 штиль 0 н/о н/о +16.4 -29.1 3 +17 +17 1016.0 969.2
06 13.07 штиль 0 н/о н/о +16.1 -25.1 4 +16 +16 1015.6 968.8
07 13.07 В 1
{3}
н/о н/о +15.8 -20.5 7 +17 +17 1015.1 968.3
08 13.07 штиль 0
{3}
н/о н/о +16.6 -28.9 3 +17 +17 1015.1 968.4
09 13.07 штиль 0
{3}
н/о н/о +16.3 -28.3 3 +16 +16 1015.4 968.7
12 13.07 штиль 0
{2}
н/о н/о +20.0 -26.6 3 +19 +19 1016.8 970.6
14 13.07 штиль 0
{2}
н/о н/о +23.0 -24.6 3 +20 +20 1016.7 970.9
15 13.07 штиль 0
{2}
н/о н/о +24.8 -23.4 3 +21 +21 комфорт 1015.5 970.1
17 13.07 штиль 0
{2}
н/о н/о +24.5 -23.6 3 +21 +21 комфорт 1013.7 968.3
18 13.07 штиль 0 н/о н/о +24.7 -23.5 3 +21 +21 комфорт 1012.9 967.6
19 13.07 штиль 0
{1}
н/о н/о +24.0 -24.0 3 +21 +21 комфорт 1012.8 967.4
20 13.07 штиль 0 н/о н/о +22.8 -24.8 3 +20 +20 1012.7 967.1
21 13.07 штиль 0 н/о н/о +21.8 -25.4 3 +19 +19 1013.0 967.2
22 13.07 штиль 0 н/о н/о +21.9 -25.4 3 +19 +19 1013.2 967.4
23 13.07 штиль 0 н/о н/о +21.8 -25.4 3 +19 +19 1013.3 967.5
00 14.07 штиль 0 н/о н/о +21.2 -25.8 3 +19 +19 1013.6 967.7
01 14.07 штиль 0 н/о н/о +21.0 -26.0 3 +19 +19 1014.1 968.1
03 14.07 штиль 0 н/о н/о +19.7 -26.8 3 +19 +19 1014.7 968.5
04 14.07 штиль 0 н/о н/о +19.7 -26.8 3 +19 +19 1014.8 968.6
05 14.07 штиль 0 н/о н/о +20.2 -26.5 3 +19 +19 1014.4 968.3
06 14.07 штиль 0 н/о н/о +19.7 -26.8 3 +19 +19 1013.9 967.8
07 14.07 штиль 0 н/о н/о +19.5 -26.9 3 +19 +19 1012.8 966.7
08 14.07 штиль 0 н/о н/о +18.3 -27.8 3 +18 +18 1013.7 967.3
09 14.07 штиль 0 н/о н/о +18.2 -22.7 5 +18 +18 1013.5 967.1
10 14.07 штиль 0 н/о н/о +18.4 -27.7 3 +18 +18 1014.1 967.7
11 14.07 штиль 0 н/о н/о +18.6 -27.6 3 +18 +18 1014.1 967.8
12 14.07 штиль 0 н/о н/о +20.5 -26.3 3 +19 +19 1014.7 968.6
13 14.07 штиль 0 н/о н/о +23.2 -24.5 3 +20 +20 1014.6 969.0
14 14.07 штиль 0 н/о н/о +23.9 -24.0 3 +21 +21 комфорт 1014.7 969.2
15 14.07 штиль 0
{2}
н/о н/о +23.7 -24.1 3 +20 +20 1014.8 969.2
16 14.07 штиль 0
{3}
н/о н/о +23.7 -24.1 3 +20 +20 1013.9 968.4
18 14.07 штиль 0 н/о н/о +20.9 -23.7 4 +19 +19 1013.0 967.1
19 14.07 штиль 0
{2}
н/о н/о +20.9 -18.5 6 +19 +19 1012.8 966.9
20 14.07 штиль 0
{2}
н/о н/о +20.4 -8.8 13 +19 +19 1013.4 967.4
21 14.07 штиль 0 н/о н/о +19.6 +1.0 29 +20 +20 1014.0 967.8
22 14.07 штиль 0
{3}
н/о н/о +18.9 +18 +18 1015.3 969.0
23 14.07 штиль 0 н/о н/о +17.7 +18 +18 1015.6 969.1 2
00 15.07 штиль 0 н/о н/о +17.3 +17 +17 1015.4 968.8 1
01 15.07 штиль 0 н/о н/о +17.1 +17 +17 1015.4 968.8 2
02 15.07 штиль 0
{3}
н/о н/о +16.8 +17 +17 1016.2 969.5 10
03 15.07 штиль 0 н/о н/о +16.6 +17 +17 1015.7 969.0 1
04 15.07 штиль 0 н/о н/о +16.6 +17 +17 1015.6 968.9 0.6
05 15.07 штиль 0 н/о н/о +16.8 +17 +17 1014.7 968.1 1
06 15.07 штиль 0
{1}
н/о н/о +16.6 +17 +17 1015.0 968.3
08 15.07 штиль 0
{2}
н/о н/о +16.5 +17 +17 1013.1 966.5 0.2
09 15.07 штиль 0
{1}
н/о н/о +16.5 +17 +17 1014.8 968.1 1
10 15.07 штиль 0
{1}
н/о н/о +16.3 +16 +16 1015.1 968.4 0.2
11 15.07 штиль 0 н/о н/о +16.4 +17 +17 1016.3 969.5
12 15.07 штиль 0
{1}
н/о н/о +16.8 +17 +17 1017.0 970.3 0.4
13 15.07 штиль 0
{1}
н/о н/о +17.4 +17 +17 1018.0 971.3
14 15.07 штиль 0
{1}
н/о н/о +17.6 +18 +18 1017.6 971.0
15 15.07 штиль 0
{1}
н/о н/о +17.8 +18 +18 1017.2 970.6
16 15.07 штиль 0
{1}
н/о н/о +18.0 +18 +18 1016.7 970.2
17 15.07 штиль 0
{1}
н/о н/о +18.4 +18 +18 1016.0 969.6
18 15.07 штиль 0 н/о н/о +18.9 +18 +18 1015.8 969.4
20 15.07 штиль 0 н/о н/о +18.6 +18 +18 1016.1 969.7
21 15.07 штиль 0 н/о н/о +17.5 +18 +18 1016.8 970.2
22 15.07 штиль 0 н/о н/о +17.6 +18 +18 1017.6 971.0
23 15.07 Ю 1
{5}
н/о н/о +15.5 +17 +17 1018.7 971.7
00 16.07 штиль 0
{4}
н/о н/о +14.7 +15 +15 1019.3 972.1
01 16.07 ЮВ 1
{4}
н/о н/о +13.6 +15 +15 1019.8 972.4
02 16.07 штиль 0
{4}
н/о н/о +12.3 +13 +13 1020.4 972.8
03 16.07 штиль 0 н/о н/о +11.0 +11 +11 1020.7 972.9
04 16.07 штиль 0 н/о н/о +11.1 +12 +12 1020.9 973.1
05 16.07 штиль 0 н/о н/о +10.3 +11 +11 1021.1 973.1
07 16.07 штиль 0 н/о н/о +9.0 +10 +10 1021.3 973.1
08 16.07 штиль 0 н/о н/о +8.7 +5.6 81 +8 +8 1021.4 973.1
09 16.07 штиль 0 н/о н/о +8.0 +9 +9 1021.7 973.3
10 16.07 штиль 0 н/о н/о +7.7 +8 +8 1022.4 973.9
11 16.07 штиль 0 н/о н/о +9.6 +10 +10 1023.1 974.9
12 16.07 штиль 0
{3}
н/о н/о +12.3 +7.2 71 +12 +12 1023.5 975.7
13 16.07 штиль 0
{3}
н/о н/о +13.8 -30.9 3 +14 +14 1023.7 976.2
14 16.07 штиль 0
{3}
н/о н/о +15.2 -29.9 3 +15 +15 1023.5 976.2
15 16.07 штиль 0
{4}
н/о н/о +16.0 -29.4 3 +16 +16 1023.3 976.1
16 16.07 штиль 0
{4}
н/о н/о +17.2 -28.6 3 +17 +17 1022.2 975.3
17 16.07 штиль 0
{4}
н/о н/о +17.7 -28.2 3 +18 +18 1021.5 974.7
18 16.07 штиль 0
{3}
н/о н/о +18.1 -27.9 3 +18 +18 1020.8 974.1
19 16.07 штиль 0
{3}
н/о н/о +17.9 -28.0 3 +18 +18 1020.6 973.9
20 16.07 штиль 0 н/о н/о +16.2 -29.2 3 +16 +16 1021.0 974.0
21 16.07 штиль 0
{1}
н/о н/о +14.2 -30.6 3 +14 +14 1021.4 974.0
22 16.07 штиль 0 н/о н/о +10.9 -32.6 3 +11 +11 1022.4 974.5
23 16.07 штиль 0
{1}
н/о н/о +9.6 -27.5 5 +10 +10 1023.3 975.1
00 17.07 штиль 0 н/о н/о +9.2 -19.7 11 +10 +10 1023.4 975.1
01 17.07 штиль 0 н/о н/о +8.0 +9 +9 1023.8 975.3
02 17.07 штиль 0 н/о н/о +7.6 +8 +8 1024.1 975.5
03 17.07 штиль 0 н/о н/о +7.2 +8 +8 1023.9 975.3
04 17.07 штиль 0 н/о н/о +8.4 +6.2 86 +8 +8 1024.2 975.8
05 17.07 штиль 0
{3}
н/о н/о +7.9 +8 +8 1024.3 975.8
06 17.07 В 1
{4}
н/о н/о +8.0 +6.1 88 +8 +8 1024.1 975.6
07 17.07 В 2
{4}
н/о н/о +8.5 +3.0 68 +7 +7 1024.0 975.6
08 17.07 В 3
{4}
н/о н/о +8.5 +1.3 61 +6 +6 1024.1 975.7
09 17.07 штиль 0
{4}
н/о н/о +8.2 +1.8 64 +8 +8 1024.2 975.7
10 17.07 В 2
{4}
н/о н/о +8.1 +0.8 60 +7 +7 1025.1 976.6
11 17.07 В 3
{4}
н/о н/о +10.1 -17.3 13 +9 +9 1025.6 977.4
12 17.07 В 4
{5}
н/о н/о +12.0 -32.1 3 +11 +11 1026.3 978.4
13 17.07 В 4
{6}
н/о н/о +13.9 -30.8 3 +13 +13 1026.2 978.6
14 17.07 В 3
{6}
н/о н/о +15.7 -29.5 3 +16 +16 1026.0 978.7
16 17.07 штиль 0
{4}
н/о н/о +18.7 -27.5 3 +18 +18 1023.9 977.1
17 17.07 штиль 0
{4}
н/о н/о +19.7 -26.8 3 +19 +19 1023.2 976.6
18 17.07 штиль 0
{3}
н/о н/о +19.9 -26.7 3 +19 +19 1022.5 976.0
19 17.07 штиль 0
{3}
н/о н/о +20.0 -26.6 3 +19 +19 1022.3 975.8
21 17.07 штиль 0 н/о н/о +14.6 -30.3 3 +15 +15 1022.5 975.2
22 17.07 штиль 0 н/о н/о +12.4 -31.8 3 +13 +13 1022.6 974.9
23 17.07 штиль 0 н/о н/о +12.1 -32.0 3 +12 +12 1022.9 975.1
00 18.07 штиль 0 н/о н/о +11.4 -32.5 3 +12 +12 1023.0 975.1
01 18.07 штиль 0
{3}
н/о н/о +11.5 -32.4 3 +12 +12 1023.4 975.5
02 18.07 штиль 0 н/о н/о +10.8 -32.9 3 +11 +11 1023.5 975.5
03 18.07 В 1
{3}
н/о н/о +10.5 -31.2 4 +12 +12 1023.4 975.3
04 18.07 штиль 0
{3}
н/о н/о +10.4 -10.6 22 +11 +11 1023.6 975.5
06 18.07 В 1
{3}
н/о н/о +10.3 +12 +12 1023.0 974.9
07 18.07 штиль 0
{4}
н/о н/о +10.2 +11 +11 1022.8 974.7
08 18.07 В 3
{4}
н/о н/о +10.3 +10 +10 1022.5 974.5
09 18.07 штиль 0
{4}
н/о н/о +9.6 +10 +10 1023.3 975.1
10 18.07 В 1
{4}
н/о н/о +9.8 +11 +11 1023.5 975.3
12 18.07 В 3
{5}
н/о н/о +13.9 +5.3 56 +13 +13 1023.8 976.3
13 18.07 В 3
{5}
н/о н/о +16.3 -29.2 3 +16 +16 1023.7 976.6
14 18.07 В 3
{6}
н/о н/о +17.9 -28.0 3 +18 +18 1023.6 976.7
15 18.07 В 4
{6}
н/о н/о +19.3 -27.1 3 +19 +19 1022.6 976.0
16 18.07 СВ 3
{6}
н/о н/о +20.2 -26.5 3 +20 +20 1021.6 975.2
17 18.07 В 1
{5}
н/о н/о +20.3 -26.4 3 +20 +20 1020.7 974.3
18 18.07 штиль 0
{4}
н/о н/о +20.8 -26.1 3 +19 +19 1020.3 974.0
19 18.07 штиль 0
{3}
н/о н/о +20.4 -26.4 3 +19 +19 1020.2 973.9
20 18.07 штиль 0 н/о н/о +19.7 -26.9 3 +19 +19 1020.2 973.8
21 18.07 штиль 0 н/о н/о +19.4 -27.0 3 +19 +19 1020.4 973.9
22 18.07 штиль 0 н/о н/о +18.5 -27.6 3 +18 +18 1021.9 975.2
23 18.07 штиль 0 н/о н/о +16.6 +6.0 50 +17 +17 1022.7 975.7 0.6
00 19.07 штиль 0
{2}
н/о н/о +15.2 +15 +15 1022.8 975.5
01 19.07 штиль 0
{2}
н/о н/о +14.6 +15 +15 1022.9 975.5
02 19.07 штиль 0 н/о н/о +14.1 +14 +14 1022.7 975.3
03 19.07 штиль 0 н/о н/о +15.4 +14.1 92 +15 +15 1022.5 975.3
04 19.07 В 1
{3}
н/о н/о +15.7 +12.4 81 +17 +17 1022.6 975.4
05 19.07 В 1
{4}
н/о н/о +15.6 +12.8 83 +17 +17 1022.4 975.2
06 19.07 штиль 0
{4}
н/о н/о +15.1 +13.3 89 +15 +15 1021.8 974.6
07 19.07 В 2
{4}
н/о н/о +14.9 +12.5 86 +15 +15 1021.0 973.8
08 19.07 В 3
{4}
н/о н/о +14.5 +13.4 93 +13 +13 1020.6 973.3
09 19.07 В 3
{5}
н/о н/о +14.6 +13.2 91 +14 +14 1020.8 973.5
10 19.07 В 2
{5}
н/о н/о +14.9 +12.8 87 +15 +15 1021.2 974.0
11 19.07 В 3
{4}
н/о н/о +15.2 +13.4 89 +15 +15 1021.8 974.6
12 19.07 В 3
{4}
н/о н/о +16.1 +12.2 78 +16 +16 1022.8 975.7
13 19.07 Ю 1
{5}
н/о н/о +16.4 +11.2 71 +17 +17 1024.8 977.6
14 19.07 В 1
{4}
н/о н/о +16.5 +12.1 75 +18 +18 1024.6 977.5
15 19.07 штиль 0
{4}
н/о н/о +17.6 +7.8 53 +18 +18 1023.7 976.8
16 19.07 штиль 0
{4}
н/о н/о +19.0 -27.3 3 +18 +18 1023.0 976.3
17 19.07 штиль 0
{3}
н/о н/о +18.8 -27.4 3 +18 +18 1021.7 975.1

 

Местоположение метеостанции Планарту (Парана, Бразилия): широта -25.72 долгота -53.75 высота над уровнем моря 348 м.

В архиве по умолчанию представлена погода в Планарту за последнюю неделю. Архивные данные за месяц целиком и за предыдущие месяцы, начиная с января 2011 года, Вы можете получить, выбрав интересующий диапазон дат из раскрывающегося списка и нажав кнопку "Ввод!".


*Определитесь, кто Вы:
робот инопланетянин человек

Внимание! Время в таблицах - всемирное. Для получения местного времени необходимо прибавить поправку, которая равна -3 ч.

Смотрите также архив погоды в соседних городах и на ближайших метеорологических станциях:

Погода в Дионисио Серкейра (Парана, Бразилия) (63 км)
Погода в Дойс-Визиньюсе (Парана, Бразилия) (65 км)
Погода в Игуасу (Аргентина) (71 км)
Погода в Фос-ду-Игуасу (Парана, Бразилия) (74 км)
Погода в Фос-ду-Игуасу (Парана, Бразилия) (86 км)
Погода в Аэропорту Гуарани (Парагвай) (114 км)
Погода в Ново-Оризонти (Санта-Катарина, Бразилия) (118 км)
Погода в Сан-Мигель-ду-Осте (Санта-Катарина, Бразилия) (121 км)
Погода в Марешал-Кандиду-Рондоне (Парана, Бразилия) (135 км)
Погода в Кампина-да-Лагоа (Парана, Бразилия) (160 км)

Пояснения к столбцам:

Ветер - указаны скорость ветра в м/с - средняя за 10 мин, порывы в срок и между сроками (в фигурных скобках) и направление, откуда дует ветер: С - северный, СВ - северо-восточный, В - восточный, ЮВ - юго-восточный, Ю - южный, ЮЗ - юго-западный, З - западный, СЗ - северо-западный.
Видимость - горизонтальная дальность видимости в метрах или километрах. При видимости от 1 до 10 км при отсутствии осадков обычно наблюдается дымка, при ухудшении видимости до 1 км и менее - туман. В сухую погоду видимость может ухудшаться дымом, пылью или мглою.
Явления - указаны атмосферные явления, наблюдавшиеся в срок или в последний час перед сроком; фигурными скобками обозначены явления, наблюдавшиеся между сроками (за 1-3 часа до срока); квадратными скобками обозначены град или гололедные отложения с указанием их диаметра в мм.
Облачность - указаны через наклонную черту общая и нижняя облачность в баллах и высота нижней границы облаков в метрах; квадратными скобками обозначены формы облаков: Ci - перистые, Cs - перисто-слоистые, Cc - перисто-кучевые, Ac - высококучевые, As - высокослоистые, Sc - слоисто-кучевые, Ns - слоисто-дождевые, Cu - кучевые, Cb - кучево-дождевые. Подробнее классификацию облаков см. в Атласе облаков (PDF).
T - Температура воздуха - температура, измеренная на высоте 2 м над землей.
Td - Температура точки росы - температура, при понижении до которой содержащийся в воздухе водяной пар достигнет насыщения.
f - Относительная влажность воздуха - влажноcть воздуха, измеренная на высоте 2 м над землей.
Te - Эффективная температура - температура, которую ощущает одетый по сезону человек в тени. Характеристика душности погоды. При расчете учитывается влияние влажности воздуха и скорости ветра на теплоощущения человека.
Tes - Эффективная температура на солнце - температура, которую ощущает человек, с поправкой на солнечный нагрев. Характеристика знойности погоды. Зависит от высоты солнца над горизонтом, облачности и скорости ветра. Ночью, в пасмурную погоду, а также при ветре 12 м/с и более поправка равна нулю.
P - Атмосферное давление - приведенное к уровню моря атмосферное давление.
Po - Атмосферное давление - измеренное на уровне метеостанции атмосферное давление.
Tmin - Минимальная температура - минимум температуры воздуха на высоте 2 м над землей.
Tmax - Максимальная температура - максимум температуры воздуха на высоте 2 м над землей.
R - Количество осадков - Количество выпавших осадков за период времени, мм. При наведении курсора мыши на число - период времени, за который выпало указанное количество осадков.
R24 - Количество осадков - Количество выпавших осадков за 24 часа, мм.
S - Снежный покров - Высота снежного покрова, см. При наведении курсора мыши на число - состояние снежного покрова и степень покрытия местности в баллах.